Flag for Norway Weather past 2 weeks in Osøyro, Norway

Now
48 °F

Passing clouds.


Feels Like: 43 °F
Forecast: 45 / 47 °F
Wind: 13 mph from South

Location: Bergen / Flesland

Current Time: May 6, 2015 at 4:24:19 AM

Latest Report: May 6, 2015 at 3:00 AM


Visibility: 11 mi

Pressure: 29.35 "Hg

Humidity: 78%

Dew point: 42 °F

Location of OsøyroLocation

Historic Weather in Osøyro — Graph

°F

Osøyro temperature yesterday

Maximum temperature yesterday: 59 °F (at 1:00 PM)
Minimum temperature yesterday: 46 °F (at 6:00 AM)
Average temperature yesterday: 53 °F

Past Weeks' High & Low Weather Summary

 TemperatureHumidityPressure
High59 °F (May 5, 1:00 PM)99% (Apr 21, 5:00 AM)30.47 "Hg (Apr 21, 5:00 AM)
Low33 °F (Apr 28, 2:00 AM)34% (May 3, 1:00 PM)29.18 "Hg (May 5, 7:00 PM)
Average43 °F76%29.77 "Hg
* Reported Apr 21 3:00 AM — May 6 3:00 AM, Osøyro, Weather by CustomWeather, © 2015

Note: Actual official high and low records may vary slightly from our data, if they occured in-between our weather recording intervals... More about our weather records

Advertising

Osøyro weather history for previous 24 hours

 ConditionsComfort  
Time TempWeatherWind HumidityBarometerVisibility
3:00 AM
Wed, May 6
48 °FPassing clouds.13 mph78%29.35 "Hg11 mi
2:00 AM49 °FOvercast.14 mph85%29.32 "Hg11 mi
1:00 AM50 °FLots of rain. Low clouds.15 mph93%29.26 "Hg2 mi
12:00 AM54 °FRain showers. Overcast.8 mph79%29.21 "Hg8 mi
10:00 PM
Tue, May 5
59 °FOvercast.8 mph56%29.21 "Hg31 mi
9:00 PM58 °FOvercast.7 mph56%29.18 "Hg31 mi
8:00 PM59 °FOvercast.9 mph53%29.18 "Hg31 mi
7:00 PM58 °FOvercast.5 mph53%29.18 "Hg31 mi
6:00 PM53 °FOvercast.3 mph65%29.23 "Hg28 mi
5:00 PM52 °FLight rain. Overcast.5 mph73%29.29 "Hg18 mi
4:00 PM55 °FLight rain. Overcast.6 mph55%29.35 "Hg19 mi
3:00 PM58 °FPartly sunny.5 mph44%29.38 "Hg25 mi
2:00 PM59 °FOvercast.6 mph44%29.44 "Hg22 mi
1:00 PM59 °FOvercast.5 mph45%29.47 "Hg28 mi
12:00 PM58 °FOvercast.6 mph47%29.50 "Hg22 mi
11:00 AM57 °FScattered clouds.5 mph50%29.56 "Hg28 mi
10:00 AM54 °FPassing clouds.3 mph65%29.59 "Hg18 mi
9:00 AM51 °FOvercast.2 mph79%29.61 "Hg19 mi
8:00 AM50 °FOvercast.2 mph74%29.62 "Hg22 mi
7:00 AM47 °FOvercast.2 mph86%29.64 "Hg19 mi
6:00 AM46 °FOvercast.No wind91%29.66 "Hg15 mi
4:00 AM47 °FOvercast.3 mph90%29.67 "Hg13 mi
Weather by CustomWeather, © 2015

See weather overviewHow to use our weather pages